THA222 EKCH-HECA

Flight info

Callsign THA222
Flight time N/A
Altitude 39000
Route SALLO M44 KOGIM DCT RODEP DCT RENKI M725 HDO DCT ODLIV DCT BODAL DCT BEGLA DCT SVR DCT BABIT DCT SOSEK DCT GINAM DCT IBISI DCT RUGAS DCT KOROS DCT KUMBI L612 BLT A16 CVO
Aircraft A388/J-SADE2E3FGHIJ3J4J5M1RWXY/LB1D1

Departure

Time 2026-05-06 20:57
Airport Copenhagen Kastrup Airport (EKCH)

Arrival

Time N/A
Airport Cairo International Airport (HECA)
Time Latitude Longitude Altitude Speed Heading
2026-05-06 20:38 55.62360 12.65078 27 ft 0 kts 285°
2026-05-06 20:47 55.62359 12.65089 27 ft 3 kts 285°
2026-05-06 20:47 55.62353 12.65141 32 ft 4 kts 272°
2026-05-06 20:47 55.62370 12.65186 24 ft 2 kts 209°
2026-05-06 20:48 55.62384 12.65193 32 ft 1 kts 192°
2026-05-06 20:48 55.62392 12.65194 32 ft 2 kts 181°
2026-05-06 20:52 55.62313 12.65198 27 ft 17 kts 176°
2026-05-06 20:52 55.62230 12.65264 27 ft 8 kts 104°
2026-05-06 20:53 55.62252 12.65354 28 ft 22 kts 60°
2026-05-06 20:53 55.62297 12.65695 23 ft 33 kts 86°
2026-05-06 20:53 55.62346 12.66036 19 ft 27 kts 53°
2026-05-06 20:53 55.62479 12.66246 25 ft 25 kts 40°
2026-05-06 20:54 55.62603 12.66457 25 ft 24 kts 64°
2026-05-06 20:54 55.62613 12.66572 18 ft 0 kts 109°
2026-05-06 20:55 55.62588 12.66643 19 ft 15 kts 131°
2026-05-06 20:56 55.62505 12.66677 24 ft 11 kts 199°
2026-05-06 20:56 55.62378 12.66517 8 ft 27 kts 223°
2026-05-06 20:56 55.62338 12.66454 28 ft 0 kts 221°
2026-05-06 20:56 55.62318 12.66423 27 ft 25 kts 221°
2026-05-06 20:57 55.61952 12.65870 30 ft 108 kts 221°
2026-05-06 20:57 55.61231 12.64756 33 ft 160 kts 219°
2026-05-06 20:57 55.60398 12.63456 700 ft 147 kts 220°
2026-05-06 20:57 55.59626 12.62208 1350 ft 160 kts 218°
2026-05-06 20:58 55.58747 12.60858 1893 ft 178 kts 217°
2026-05-06 20:58 55.57742 12.59344 2432 ft 201 kts 217°
2026-05-06 20:58 55.56652 12.57671 2917 ft 215 kts 218°
2026-05-06 20:58 55.55434 12.56062 3378 ft 219 kts 200°
2026-05-06 20:59 55.53999 12.55134 3833 ft 221 kts 197°
2026-05-06 20:59 55.52548 12.54189 4310 ft 224 kts 198°
2026-05-06 20:59 55.51083 12.53213 4782 ft 226 kts 199°
2026-05-06 20:59 55.49598 12.52224 4999 ft 230 kts 199°
2026-05-06 21:00 55.48123 12.51243 4995 ft 229 kts 199°
2026-05-06 21:00 55.46632 12.50256 4997 ft 228 kts 199°
2026-05-06 21:00 55.45152 12.49280 4995 ft 226 kts 199°
2026-05-06 21:00 55.43685 12.48575 4716 ft 217 kts 194°